AUA27 EDDW-EDDK

Flight info

Callsign AUA27
Flight time N/A
Altitude 23000
Route WIMCI1M WIMCI Y804 PIROT N850 WRB/N0408F240 P12 ESADU T858 GETNI/N0397F220 T858 KOPAG KOPAG1C
Aircraft A20N/M-SDE2E3FGHIRWXY/LB1

Departure

Time 2026-05-06 08:46
Airport Bremen Airport (EDDW)

Arrival

Time N/A
Airport Cologne Bonn Airport (EDDK)
Time Latitude Longitude Altitude Speed Heading
2026-05-06 08:18 53.05172 8.78532 20 ft 0 kts 49°
2026-05-06 08:38 53.05163 8.78515 19 ft 3 kts 49°
2026-05-06 08:38 53.05149 8.78489 23 ft 3 kts 49°
2026-05-06 08:38 53.05135 8.78464 21 ft 3 kts 30°
2026-05-06 08:39 53.05117 8.78456 22 ft 3 kts 338°
2026-05-06 08:39 53.05113 8.78459 22 ft 0 kts 314°
2026-05-06 08:40 53.05113 8.78458 22 ft 1 kts 314°
2026-05-06 08:40 53.05139 8.78405 18 ft 10 kts 304°
2026-05-06 08:41 53.05174 8.78279 18 ft 14 kts 286°
2026-05-06 08:41 53.05193 8.78149 20 ft 12 kts 279°
2026-05-06 08:41 53.05167 8.78005 20 ft 14 kts 240°
2026-05-06 08:41 53.05102 8.77863 18 ft 17 kts 224°
2026-05-06 08:42 53.05081 8.77828 18 ft 0 kts 227°
2026-05-06 08:42 53.05081 8.77827 18 ft 0 kts 226°
2026-05-06 08:43 53.05067 8.77803 18 ft 8 kts 227°
2026-05-06 08:43 53.05018 8.77713 18 ft 13 kts 227°
2026-05-06 08:43 53.04949 8.77590 18 ft 16 kts 226°
2026-05-06 08:43 53.04857 8.77491 20 ft 16 kts 205°
2026-05-06 08:44 53.04777 8.77453 19 ft 9 kts 187°
2026-05-06 08:44 53.04758 8.77451 19 ft 0 kts 184°
2026-05-06 08:44 53.04735 8.77450 19 ft 9 kts 177°
2026-05-06 08:45 53.04670 8.77505 19 ft 12 kts 128°
2026-05-06 08:45 53.04661 8.77565 19 ft 0 kts 92°
2026-05-06 08:45 53.04669 8.77967 19 ft 78 kts 87°
2026-05-06 08:45 53.04708 8.79286 39 ft 145 kts 85°
2026-05-06 08:46 53.04753 8.81004 779 ft 150 kts 85°
2026-05-06 08:46 53.04781 8.82730 1792 ft 147 kts 84°
2026-05-06 08:46 53.04819 8.84478 2610 ft 158 kts 85°
2026-05-06 08:46 53.04794 8.86416 3104 ft 181 kts 99°
2026-05-06 08:47 53.04226 8.88427 3558 ft 208 kts 122°
2026-05-06 08:47 53.03106 8.90167 4032 ft 234 kts 142°
2026-05-06 08:47 53.01605 8.91513 4567 ft 259 kts 158°
2026-05-06 08:47 52.99819 8.92003 5414 ft 267 kts 174°
2026-05-06 08:48 52.97942 8.92049 6390 ft 271 kts 177°
2026-05-06 08:48 52.96041 8.92033 7285 ft 276 kts 177°
2026-05-06 08:48 52.94101 8.92069 8177 ft 281 kts 176°
2026-05-06 08:48 52.92130 8.92177 9048 ft 286 kts 174°
2026-05-06 08:49 52.90137 8.92328 10014 ft 288 kts 174°
2026-05-06 08:49 52.88083 8.92506 10522 ft 306 kts 174°
2026-05-06 08:49 52.85906 8.92702 10824 ft 328 kts 175°
2026-05-06 08:49 52.83580 8.92909 11412 ft 338 kts 175°
2026-05-06 08:50 52.81224 8.93115 12255 ft 340 kts 175°
2026-05-06 08:50 52.78849 8.93319 13112 ft 343 kts 175°
2026-05-06 08:50 52.76460 8.93525 13922 ft 345 kts 175°
2026-05-06 08:50 52.74050 8.93734 14635 ft 349 kts 175°
2026-05-06 08:51 52.71622 8.93945 15394 ft 350 kts 175°
2026-05-06 08:51 52.69183 8.94331 16079 ft 353 kts 169°
2026-05-06 08:51 52.66784 8.95256 16798 ft 356 kts 162°
2026-05-06 08:51 52.64432 8.96458 17383 ft 362 kts 163°
2026-05-06 08:52 52.62018 8.97682 18076 ft 365 kts 163°
2026-05-06 08:52 52.59579 8.98906 18690 ft 368 kts 164°
2026-05-06 08:52 52.57119 9.00131 19276 ft 372 kts 164°
2026-05-06 08:52 52.54638 9.01363 19861 ft 374 kts 164°
2026-05-06 08:53 52.52130 9.02606 20392 ft 379 kts 164°
2026-05-06 08:53 52.49598 9.03859 20981 ft 382 kts 164°
2026-05-06 08:53 52.47045 9.05122 21554 ft 385 kts 164°
2026-05-06 08:53 52.44472 9.06394 22130 ft 388 kts 163°
2026-05-06 08:54 52.41912 9.07657 22625 ft 392 kts 164°
2026-05-06 08:54 52.39255 9.08591 22787 ft 390 kts 173°
2026-05-06 08:54 52.36550 9.08842 22799 ft 389 kts 179°
2026-05-06 08:54 52.33847 9.08959 22803 ft 389 kts 179°
2026-05-06 08:55 52.31139 9.09075 22802 ft 389 kts 179°
2026-05-06 08:55 52.28430 9.09172 22801 ft 389 kts 179°
2026-05-06 08:55 52.25722 9.09253 22799 ft 389 kts 179°
2026-05-06 08:55 52.23016 9.09325 22798 ft 389 kts 179°
2026-05-06 08:56 52.20309 9.09393 22799 ft 389 kts 179°
2026-05-06 08:56 52.17639 9.09458 22798 ft 389 kts 179°
2026-05-06 08:56 52.14920 9.09524 22804 ft 391 kts 179°
2026-05-06 08:56 52.12207 9.09590 22799 ft 391 kts 179°
2026-05-06 08:57 52.09490 9.09657 22796 ft 390 kts 179°
2026-05-06 08:57 52.06771 9.09724 22803 ft 391 kts 179°
2026-05-06 08:57 52.04053 9.09791 22793 ft 391 kts 179°
2026-05-06 08:57 52.01336 9.09857 22793 ft 391 kts 179°
2026-05-06 08:58 51.98616 9.09924 22778 ft 391 kts 179°
2026-05-06 08:58 51.95936 9.09989 22779 ft 390 kts 179°
2026-05-06 08:58 51.93221 9.10056 22785 ft 391 kts 179°
2026-05-06 08:58 51.90500 9.10123 22774 ft 392 kts 179°
2026-05-06 08:59 51.87777 9.10190 22782 ft 391 kts 179°
2026-05-06 08:59 51.85053 9.10256 22776 ft 391 kts 179°
2026-05-06 08:59 51.82340 9.10056 22775 ft 391 kts 189°
2026-05-06 08:59 51.79736 9.08809 22783 ft 392 kts 205°
2026-05-06 09:00 51.77303 9.06806 22777 ft 392 kts 207°
2026-05-06 09:00 51.74893 9.04747 22783 ft 392 kts 208°
2026-05-06 09:00 51.72666 9.02319 22768 ft 393 kts 220°
2026-05-06 09:00 51.70780 8.99110 22770 ft 395 kts 227°
2026-05-06 09:01 51.68975 8.95794 22772 ft 390 kts 228°
2026-05-06 09:01 51.67218 8.92526 22773 ft 383 kts 228°
2026-05-06 09:01 51.65471 8.89257 22773 ft 387 kts 228°
2026-05-06 09:01 51.63713 8.85962 22779 ft 387 kts 228°
2026-05-06 09:02 51.61961 8.82680 22777 ft 386 kts 228°
2026-05-06 09:02 51.60207 8.79401 22777 ft 387 kts 228°
2026-05-06 09:02 51.58452 8.76124 22773 ft 387 kts 228°
2026-05-06 09:02 51.56695 8.72849 22777 ft 387 kts 228°
2026-05-06 09:03 51.54959 8.69618 22770 ft 387 kts 228°
2026-05-06 09:03 51.53188 8.66325 22776 ft 394 kts 228°
2026-05-06 09:03 51.51386 8.62981 22620 ft 396 kts 228°
2026-05-06 09:03 51.49593 8.59655 22319 ft 392 kts 228°
2026-05-06 09:04 51.47817 8.56365 21819 ft 389 kts 228°
2026-05-06 09:04 51.46056 8.53107 21289 ft 384 kts 228°
2026-05-06 09:04 51.44316 8.49891 20766 ft 379 kts 228°
2026-05-06 09:04 51.42598 8.46723 20234 ft 375 kts 228°
2026-05-06 09:05 51.40919 8.43630 19697 ft 371 kts 228°
2026-05-06 09:05 51.39231 8.40525 19153 ft 368 kts 228°
2026-05-06 09:05 51.37560 8.37454 18623 ft 364 kts 228°
2026-05-06 09:05 51.35901 8.34410 18099 ft 361 kts 228°
2026-05-06 09:06 51.34260 8.31401 17512 ft 358 kts 228°
2026-05-06 09:06 51.32630 8.28416 16922 ft 355 kts 228°
2026-05-06 09:06 51.31010 8.25452 16349 ft 353 kts 228°
2026-05-06 09:06 51.29399 8.22510 15787 ft 350 kts 228°
2026-05-06 09:07 51.27800 8.19594 15233 ft 348 kts 229°
2026-05-06 09:07 51.26231 8.16737 14682 ft 345 kts 229°
2026-05-06 09:07 51.24654 8.13868 13958 ft 343 kts 229°
2026-05-06 09:07 51.23064 8.10977 13411 ft 354 kts 229°
2026-05-06 09:08 51.21425 8.08005 12863 ft 357 kts 229°
2026-05-06 09:08 51.19790 8.05041 12305 ft 356 kts 230°
2026-05-06 09:08 51.18161 8.02090 11758 ft 354 kts 230°
2026-05-06 09:08 51.16541 7.99154 11229 ft 351 kts 230°
2026-05-06 09:09 51.14938 7.96256 10800 ft 346 kts 229°
2026-05-06 09:09 51.13363 7.93411 10398 ft 339 kts 229°
2026-05-06 09:09 51.11818 7.90622 10097 ft 330 kts 229°
2026-05-06 09:09 51.10331 7.87943 10004 ft 315 kts 229°
2026-05-06 09:10 51.08936 7.85433 9998 ft 298 kts 230°
2026-05-06 09:10 51.07597 7.83031 9998 ft 286 kts 228°
2026-05-06 09:10 51.06109 7.80871 9897 ft 293 kts 218°
2026-05-06 09:10 51.04382 7.79175 9747 ft 292 kts 209°
2026-05-06 09:11 51.02591 7.77673 9430 ft 290 kts 209°
2026-05-06 09:11 51.00814 7.76166 9075 ft 289 kts 209°
2026-05-06 09:11 50.99056 7.74666 8730 ft 286 kts 209°
2026-05-06 09:11 50.97311 7.73177 8381 ft 284 kts 209°
2026-05-06 09:12 50.95590 7.71704 8031 ft 285 kts 210°
2026-05-06 09:12 50.93839 7.70230 7682 ft 284 kts 209°
2026-05-06 09:12 50.92108 7.68754 7332 ft 281 kts 210°
2026-05-06 09:12 50.90399 7.67286 6985 ft 279 kts 210°
2026-05-06 09:13 50.88695 7.65834 6632 ft 277 kts 209°
2026-05-06 09:13 50.86997 7.64388 6288 ft 278 kts 209°
2026-05-06 09:13 50.85300 7.62952 5931 ft 276 kts 209°
2026-05-06 09:13 50.83615 7.61516 5594 ft 274 kts 210°
2026-05-06 09:14 50.81939 7.60081 5231 ft 273 kts 210°
2026-05-06 09:14 50.80295 7.58680 4886 ft 271 kts 209°
2026-05-06 09:14 50.78637 7.57281 4532 ft 269 kts 209°
2026-05-06 09:14 50.77006 7.55900 4353 ft 261 kts 210°
2026-05-06 09:15 50.75429 7.54566 4263 ft 254 kts 209°
2026-05-06 09:15 50.73907 7.53282 4226 ft 241 kts 210°
2026-05-06 09:15 50.72482 7.52015 4228 ft 234 kts 220°
2026-05-06 09:15 50.71501 7.50003 4204 ft 234 kts 250°
2026-05-06 09:16 50.71153 7.47527 4049 ft 231 kts 262°
2026-05-06 09:16 50.70936 7.45054 3776 ft 230 kts 264°
2026-05-06 09:16 50.70736 7.42572 3501 ft 226 kts 263°
2026-05-06 09:16 50.70542 7.40105 3260 ft 224 kts 270°
2026-05-06 09:17 50.70902 7.37828 3224 ft 208 kts 302°
2026-05-06 09:17 50.71848 7.36242 3233 ft 194 kts 319°
2026-05-06 09:17 50.72871 7.34831 3236 ft 190 kts 318°
2026-05-06 09:17 50.73833 7.33489 3216 ft 177 kts 317°
2026-05-06 09:18 50.74691 7.32232 3140 ft 162 kts 315°
2026-05-06 09:18 50.75497 7.31038 2948 ft 155 kts 317°
2026-05-06 09:18 50.76112 7.30162 2792 ft 145 kts 317°
2026-05-06 09:18 50.76358 7.29808 2737 ft 139 kts 317°